Location: *
(34.8620°S, 39.3380°E)
Time: 02:33:00
(UTC+00:00)

Cosmos 1300 - Pass Details

Date: 02 December 2021
Orbit: 509 x 511 km, 82.5° (Epoch: 22 January)

Event Time Altitude Azimuth Distance (km) Brightness Sun altitude
Exits shadow 22:15:15 22° 170° (S) 1,168 5.1 -31.1°
Drops below altitude 10° 22:16:44 10° 171° (S) 1,761 6.3 -31.0°
Sets 22:18:53 0° 172° (S) 2,656 7.4 -30.9°
